Location: *
(41.3833°S, 177.8333°W)
Time: 07:16:44
(UTC+00:00)

CZ-4B R/B - Pass Details

Date: 01 April 2020
Orbit: 391 x 465 km, 97.6° (Epoch: 03 June)

Event Time Altitude Azimuth Distance (km) Brightness Sun altitude
Rises 16:53:28 0° 175° (S) 2,386 5.2 -14.8°
Reaches altitude 10° 16:55:31 10° 181° (S) 1,525 4.1 -14.4°
Maximum altitude 16:58:38 43° 254° (WSW) 619 1.6 -13.8°
Enters shadow 17:01:17 13° 323° (NW) 1,345 3.4 -13.3°
